Regional Weather Roundup
Issued by NWS Jackson, KY

Home | Current Version | Previous Version | Graphics & Text | Print | Product List | Glossary On
Versions: 1 2 3 4 5 6 7 8 9 10 11 12 13 14 15 16 17 18 19 20 21 22 23 24 25 26 27 28 29 30 31 32 33 34 35 36 37 38 39 40 41 42 43 44 45 46 47 48 49 50
000
ASUS43 KJKL 270210
RWRJKL

EAST KENTUCKY HOURLY WEATHER ROUNDUP
NATIONAL WEATHER SERVICE JACKSON KY
1000 PM EDT WED APR 26 2017

NOTE: "FAIR" INDICATES FEW OR NO CLOUDS BELOW 12,000 FEET WITH
NO SIGNIFICANT WEATHER AND/OR OBSTRUCTIONS TO VISIBILITY.

* THESE REPORTS ARE NOT UNDER NWS QUALITY CONTROL AND MAY NOT
  REPORT WEATHER SUCH AS PRECIPITATION AND FOG.

KYZ079-080-083-085-087-088-110-112-115-119-120-270300
...EASTERN KENTUCKY...

CITY           SKY/WX    TMP DP  RH WIND       PRES   REMARKS
JACKSON        CLEAR     74  48  39 CALM      29.67R
LONDON         CLEAR     70  54  56 CALM      29.67R
SOMERSET*      CLEAR     70  54  56 S5        29.66R
MONTICELLO*    CLEAR     70  56  61 E6        29.66R
WILLIAMSBURG*  CLEAR     72  59  64 SE5       29.68R
MIDDLESBORO*   CLEAR     64  61  88 CALM      29.70R
HARLAN APT*    CLEAR     64  54  68 CALM      29.71S
PIKE CO APT*     N/A     75  48  38 S3        29.69S
BIG SANDY APT* CLEAR     76  51  40 S6        29.68R
MOREHEAD APT*  PTCLDY    73  52  46 S5        29.65S
$$

KYZ035-036-041-042-044-050-067-078-099-270300
...CENTRAL KENTUCKY...

CITY           SKY/WX    TMP DP  RH WIND       PRES   REMARKS
MT STERLING*   CLEAR     70  55  60 S5        29.65R
FLEMING/MASON* PTCLDY    71  53  53 SE6       29.64R
DANVILLE*      CLEAR     70  54  56 S8        29.63R
LEXINGTON      CLEAR     72  56  57 S9        29.62R
FRANKFORT      CLOUDY    72  51  47 SE5       29.58S
LOUISVILLE     PTCLDY    74  57  55 SE8       29.54F
LEBANON*         N/A     72  57  60 SE7       29.60S
GLASGOW*       CLEAR     72  56  57 S5        29.60R
BOWLING GREEN  PTCLDY    74  59  59 S7        29.58R
$$

KYZ091>093-OHZ055-061-077-WVZ005-015-034-035-042-270300
...SOUTHERN OHIO/WEST VIRGINIA...

CITY           SKY/WX    TMP DP  RH WIND       PRES   REMARKS
COVINGTON      CLOUDY    70  52  52 S7        29.58S
COLUMBUS       CLOUDY    75  51  43 SE8       29.61S
DAYTON         CLOUDY    74  49  41 S14       29.60R
WILMINGTON     CLOUDY    68  53  58 S3        29.61S
HUNTINGTON     CLOUDY    71  53  52 E6        29.64R
CHARLESTON     CLEAR     66  56  70 SE5       29.67R
PINEVILLE*     CLEAR     61  54  76 MISG      29.80R
BECKLEY        CLEAR     71  54  54 SE9       29.79R
BLUEFIELD      CLEAR     68  56  65 VRB7      29.83R
LOGAN CO APT*    N/A     75  48  38 S6        29.70S
$$

VAZ002-007-008-TNZ017-027-036-066-071-270300
...SOUTHWEST VIRGINIA/EAST TENNESSEE...

CITY           SKY/WX    TMP DP  RH WIND       PRES   REMARKS
WISE*          CLEAR     72  48  43 S5        29.79R
JONESVILLE*      N/A     64  57  77 CALM      29.74R
ABINGDON*      CLEAR     73  57  57 S6        29.78R
BRISTOL        PTCLDY    74  56  53 S7        29.75R
MORRISTOWN*    CLEAR     70  61  73 CALM      29.71R
SEVIERVILLE*   CLEAR     66  61  82 CALM      29.71R
KNOXVILLE      CLEAR     70  61  73 S5        29.70R
LAFOLLETTE*    CLEAR     70  59  68 CALM      29.72R
OAK RIDGE      CLEAR     72  59  63 CALM      29.71R
CROSSVILLE     CLEAR     71  55  56 S10G18    29.73R
NASHVILLE      CLOUDY    74  58  57 S16       29.59S
$$

...KEY TO REMARKS...
VSB - VISIBILITY IN MILES
WCI - WIND CHILL INDEX
HX  - HEAT INDEX

$$



USA.gov is the U.S. government's official web portal to all federal, state and local government web resources and services.